| time (UTC) | temp F | wind direction | speed MPH | gust MPH | rain 1hr in | rain 24hr in | rain mn in | humidity % | barometer mb |
| 20260906161826 | 79 | 137 | 4.0 | 9.0 | 0.00 | 0.07 | 0.00 | 72 | 1016.7 |
| 20260906161326 | 78 | 105 | 0.0 | 9.0 | 0.00 | 0.07 | 0.00 | 73 | 1016.7 |
| 20260906160326 | 77 | 78 | 1.0 | 11.0 | 0.00 | 0.07 | 0.00 | 76 | 1017.0 |
| 20260906155825 | 75 | 285 | 1.0 | 11.0 | 0.00 | 0.07 | 0.00 | 74 | 1016.9 |
| 20260906155326 | 77 | 52 | 1.0 | 10.0 | 0.00 | 0.07 | 0.00 | 72 | 1016.9 |
| 20260906154825 | 77 | 76 | 3.0 | 10.0 | 0.00 | 0.07 | 0.00 | 77 | 1017.0 |
| 20260906154325 | 77 | 68 | 4.0 | 10.0 | 0.00 | 0.07 | 0.00 | 78 | 1017.1 |
| 20260906153325 | 76 | 101 | 4.0 | 9.0 | 0.00 | 0.07 | 0.00 | 72 | 1016.8 |
| 20260906152824 | 76 | 94 | 3.0 | 7.0 | 0.00 | 0.07 | 0.00 | 75 | 1016.8 |
| 20260906151824 | 75 | 71 | 3.0 | 6.0 | 0.00 | 0.07 | 0.00 | 77 | 1016.8 |
| 20260906151324 | 74 | 36 | 2.0 | 6.0 | 0.00 | 0.07 | 0.00 | 78 | 1016.9 |
| 20260906150824 | 74 | 342 | 1.0 | 5.0 | 0.00 | 0.07 | 0.00 | 80 | 1016.8 |
| 20260906150324 | 73 | 21 | 1.0 | 7.0 | 0.00 | 0.07 | 0.00 | 82 | 1016.7 |
| 20260906145824 | 74 | 96 | 3.0 | 7.0 | 0.00 | 0.07 | 0.00 | 76 | 1016.7 |
| 20260906145323 | 74 | 25 | 5.0 | 7.0 | 0.00 | 0.07 | 0.00 | 78 | 1016.7 |
| 20260906144823 | 75 | 88 | 3.0 | 7.0 | 0.00 | 0.07 | 0.00 | 80 | 1016.8 |
| 20260906144323 | 74 | 103 | 4.0 | 10.0 | 0.00 | 0.07 | 0.00 | 82 | 1016.7 |
| 20260906143823 | 74 | 81 | 2.0 | 10.0 | 0.00 | 0.07 | 0.00 | 82 | 1016.7 |
| 20260906142823 | 73 | 65 | 2.0 | 11.0 | 0.00 | 0.07 | 0.00 | 83 | 1016.7 |
| 20260906142323 | 73 | 113 | 2.0 | 11.0 | 0.00 | 0.07 | 0.00 | 79 | 1016.6 |
| 20260906141822 | 73 | 89 | 3.0 | 9.0 | 0.00 | 0.07 | 0.00 | 81 | 1016.6 |
| 20260906141322 | 73 | 57 | 3.0 | 10.0 | 0.00 | 0.07 | 0.00 | 83 | 1016.4 |
| 20260906140322 | 72 | 76 | 4.0 | 6.0 | 0.00 | 0.07 | 0.00 | 82 | 1016.5 |
| 20260906135822 | 72 | 108 | 2.0 | 6.0 | 0.00 | 0.07 | 0.00 | 84 | 1016.5 |
| 20260906135322 | 71 | 355 | 2.0 | 6.0 | 0.00 | 0.07 | 0.00 | 82 | 1016.3 |
| 20260906134821 | 71 | 80 | 4.0 | 9.0 | 0.00 | 0.07 | 0.00 | 84 | 1016.2 |
| 20260906134321 | 71 | 125 | 0.0 | 9.0 | 0.00 | 0.07 | 0.00 | 85 | 1016.3 |
| 20260906133821 | 70 | 117 | 1.0 | 5.0 | 0.00 | 0.07 | 0.00 | 83 | 1016.3 |
| 20260906133321 | 69 | 80 | 3.0 | 7.0 | 0.00 | 0.07 | 0.00 | 84 | 1016.3 |
| 20260906132821 | 69 | 71 | 1.0 | 7.0 | 0.00 | 0.07 | 0.00 | 84 | 1016.2 |
| 20260906132321 | 69 | 31 | 1.0 | 5.0 | 0.00 | 0.07 | 0.00 | 86 | 1016.3 |
| 20260906131851 | 68 | 41 | 1.0 | 7.0 | 0.00 | 0.07 | 0.00 | 86 | 1016.2 |
| 20260906131351 | 68 | 103 | 1.0 | 7.0 | 0.00 | 0.07 | 0.00 | 87 | 1016.0 |
| 20260906130850 | 68 | 301 | 1.0 | 5.0 | 0.00 | 0.07 | 0.00 | 88 | 1015.8 |
| 20260906130350 | 67 | 22 | 1.0 | 6.0 | 0.00 | 0.07 | 0.00 | 87 | 1015.8 |
| 20260906125351 | 67 | 61 | 2.0 | 5.0 | 0.00 | 0.07 | 0.00 | 88 | 1015.7 |
| 20260906123849 | 66 | 96 | 0.0 | 4.0 | 0.00 | 0.07 | 0.00 | 90 | 1015.7 |
| 20260906123349 | 65 | 106 | 1.0 | 5.0 | 0.00 | 0.07 | 0.00 | 90 | 1015.6 |
| 20260906122849 | 65 | 50 | 1.0 | 5.0 | 0.00 | 0.07 | 0.00 | 90 | 1015.5 |
| 20260906122349 | 65 | 95 | 3.0 | 5.0 | 0.00 | 0.07 | 0.00 | 90 | 1015.4 |
| 20260906121848 | 65 | 70 | 2.0 | 5.0 | 0.00 | 0.07 | 0.00 | 90 | 1015.3 |
| 20260906121349 | 65 | 69 | 3.0 | 5.0 | 0.00 | 0.07 | 0.00 | 91 | 1015.2 |
| 20260906120348 | 64 | 360 | 1.0 | 4.0 | 0.00 | 0.07 | 0.00 | 91 | 1015.4 |
| 20260906115848 | 64 | 47 | 0.0 | 4.0 | 0.00 | 0.07 | 0.00 | 91 | 1015.1 |
| 20260906114848 | 64 | 355 | 1.0 | 2.0 | 0.00 | 0.07 | 0.00 | 91 | 1015.1 |
| 20260906114347 | 63 | 360 | 1.0 | 4.0 | 0.00 | 0.08 | 0.00 | 91 | 1014.8 |
| 20260906113847 | 63 | 22 | 0.0 | 5.0 | 0.00 | 0.08 | 0.00 | 91 | 1014.8 |
| 20260906113348 | 63 | 11 | 1.0 | 5.0 | 0.00 | 0.10 | 0.00 | 91 | 1014.9 |
| 20260906112847 | 63 | 96 | 0.0 | 2.0 | 0.00 | 0.11 | 0.00 | 91 | 1014.7 |
| 20260906112347 | 63 | 21 | 0.0 | 2.0 | 0.00 | 0.14 | 0.00 | 91 | 1014.5 |
| 20260906111847 | 63 | 79 | 0.0 | 2.0 | 0.00 | 0.17 | 0.00 | 91 | 1014.6 |
| 20260906111347 | 63 | 80 | 0.0 | 3.0 | 0.00 | 0.20 | 0.00 | 91 | 1014.4 |
| 20260906110346 | 63 | 19 | 0.0 | 2.0 | 0.00 | 0.24 | 0.00 | 91 | 1014.4 |
| 20260906105846 | 63 | 48 | 0.0 | 2.0 | 0.00 | 0.25 | 0.00 | 90 | 1014.6 |
| 20260906104846 | 64 | 83 | 0.0 | 2.0 | 0.00 | 0.25 | 0.00 | 90 | 1014.5 |
| 20260906104346 | 64 | 81 | 0.0 | 1.0 | 0.00 | 0.25 | 0.00 | 90 | 1014.5 |
| 20260906103346 | 64 | 80 | 0.0 | 2.0 | 0.00 | 0.25 | 0.00 | 89 | 1014.4 |
| 20260906102846 | 65 | 104 | 0.0 | 2.0 | 0.00 | 0.26 | 0.00 | 89 | 1014.5 |
| 20260906102345 | 65 | 99 | 0.0 | 4.0 | 0.00 | 0.26 | 0.00 | 88 | 1014.4 |
| 20260906101846 | 65 | 78 | 1.0 | 4.0 | 0.00 | 0.26 | 0.00 | 88 | 1014.5 |
| 20260906101345 | 65 | 46 | 4.0 | 5.0 | 0.00 | 0.27 | 0.00 | 89 | 1014.4 |
| 20260906100845 | 65 | 71 | 0.0 | 5.0 | 0.00 | 0.27 | 0.00 | 89 | 1014.4 |
| 20260906095844 | 65 | 101 | 0.0 | 4.0 | 0.00 | 0.28 | 0.00 | 88 | 1014.3 |
| 20260906095344 | 65 | 94 | 1.0 | 4.0 | 0.00 | 0.28 | 0.00 | 88 | 1014.3 |
| 20260906094844 | 65 | 60 | 0.0 | 2.0 | 0.00 | 0.28 | 0.00 | 88 | 1014.3 |
| 20260906094344 | 65 | 43 | 0.0 | 3.0 | 0.00 | 0.28 | 0.00 | 88 | 1014.2 |
| 20260906093844 | 65 | 78 | 0.0 | 4.0 | 0.00 | 0.29 | 0.00 | 87 | 1014.2 |
| 20260906093344 | 65 | 88 | 0.0 | 6.0 | 0.00 | 0.30 | 0.00 | 87 | 1014.1 |
| 20260906092843 | 65 | 74 | 3.0 | 7.0 | 0.00 | 0.40 | 0.00 | 86 | 1014.1 |
| 20260906092343 | 65 | 84 | 0.0 | 7.0 | 0.00 | 0.40 | 0.00 | 86 | 1014.0 |
| 20260906091843 | 65 | 16 | 0.0 | 7.0 | 0.00 | 0.40 | 0.00 | 88 | 1013.9 |
| 20260906091343 | 65 | 342 | 2.0 | 6.0 | 0.00 | 0.42 | 0.00 | 88 | 1013.7 |
| 20260906090843 | 65 | 146 | 1.0 | 3.0 | 0.00 | 0.44 | 0.00 | 88 | 1013.8 |
| 20260906090343 | 65 | 360 | 1.0 | 5.0 | 0.00 | 0.48 | 0.00 | 88 | 1013.8 |
| 20260906085843 | 65 | 271 | 0.0 | 5.0 | 0.00 | 0.49 | 0.00 | 89 | 1014.0 |
| 20260906085342 | 65 | 83 | 0.0 | 3.0 | 0.00 | 0.49 | 0.00 | 88 | 1014.1 |
| 20260906084842 | 65 | 63 | 0.0 | 4.0 | 0.00 | 0.49 | 0.00 | 89 | 1014.0 |
| 20260906084342 | 65 | 78 | 1.0 | 4.0 | 0.00 | 0.49 | 0.00 | 89 | 1013.9 |
| 20260906083842 | 65 | 71 | 0.0 | 3.0 | 0.00 | 0.49 | 0.00 | 88 | 1013.9 |
| 20260906083342 | 65 | 74 | 1.0 | 5.0 | 0.00 | 0.49 | 0.00 | 88 | 1013.9 |
| 20260906082841 | 66 | 72 | 1.0 | 5.0 | 0.00 | 0.49 | 0.00 | 87 | 1014.1 |
| 20260906082341 | 66 | 355 | 3.0 | 6.0 | 0.00 | 0.49 | 0.00 | 87 | 1014.0 |
| 20260906081841 | 65 | 74 | 2.0 | 6.0 | 0.00 | 0.49 | 0.00 | 87 | 1014.0 |
| 20260906081341 | 66 | 65 | 2.0 | 5.0 | 0.00 | 0.49 | 0.00 | 87 | 1014.1 |
| 20260906080841 | 65 | 21 | 0.0 | 4.0 | 0.00 | 0.49 | 0.00 | 88 | 1013.9 |
| 20260906080341 | 65 | 49 | 0.0 | 4.0 | 0.00 | 0.49 | 0.00 | 88 | 1014.0 |
| 20260906075841 | 65 | 51 | 0.0 | 3.0 | 0.00 | 0.49 | 0.00 | 88 | 1014.0 |
| 20260906075341 | 65 | 71 | 3.0 | 4.0 | 0.00 | 0.49 | 0.00 | 88 | 1014.0 |
| 20260906074840 | 65 | 97 | 0.0 | 5.0 | 0.00 | 0.49 | 0.00 | 89 | 1014.0 |
| 20260906074340 | 66 | 86 | 2.0 | 5.0 | 0.00 | 0.49 | 0.00 | 88 | 1014.0 |
| 20260906073340 | 66 | 62 | 0.0 | 4.0 | 0.00 | 0.49 | 0.00 | 89 | 1013.9 |
| 20260906072840 | 66 | 92 | 0.0 | 4.0 | 0.00 | 0.49 | 0.00 | 89 | 1014.0 |
| 20260906072339 | 66 | 102 | 0.0 | 3.0 | 0.00 | 0.49 | 0.00 | 89 | 1014.0 |
| 20260906071839 | 66 | 89 | 1.0 | 4.0 | 0.00 | 0.49 | 0.00 | 89 | 1014.0 |
| 20260906070339 | 66 | 92 | 0.0 | 2.0 | 0.00 | 0.49 | 0.00 | 89 | 1013.9 |
| 20260906065839 | 66 | 119 | 0.0 | 4.0 | 0.00 | 0.49 | 0.00 | 90 | 1013.9 |
| 20260906065339 | 66 | 74 | 0.0 | 4.0 | 0.00 | 0.49 | 0.00 | 90 | 1013.9 |
| 20260906064839 | 65 | 67 | 2.0 | 4.0 | 0.00 | 0.49 | 0.00 | 90 | 1013.8 |
| 20260906064339 | 65 | 66 | 0.0 | 3.0 | 0.00 | 0.49 | 0.00 | 91 | 1013.9 |
| 20260906063838 | 66 | 36 | 0.0 | 3.0 | 0.00 | 0.49 | 0.00 | 91 | 1013.9 |
| 20260906063338 | 66 | 72 | 0.0 | 3.0 | 0.00 | 0.49 | 0.00 | 91 | 1013.9 |
| 20260906062838 | 66 | 95 | 0.0 | 3.0 | 0.00 | 0.49 | 0.00 | 91 | 1014.0 |
| 20260906062338 | 66 | 121 | 0.0 | 3.0 | 0.00 | 0.49 | 0.00 | 92 | 1014.0 |
| 20260906061337 | 66 | 56 | 0.0 | 2.0 | 0.00 | 0.49 | 0.00 | 93 | 1014.0 |
| 20260906060337 | 66 | 90 | 0.0 | 2.0 | 0.00 | 0.49 | 0.00 | 93 | 1013.9 |
| 20260906054837 | 66 | 90 | 0.0 | 3.0 | 0.00 | 0.49 | 0.00 | 93 | 1013.7 |
| 20260906054336 | 66 | 90 | 0.0 | 3.0 | 0.00 | 0.49 | 0.00 | 94 | 1013.7 |
| 20260906053836 | 66 | 76 | 1.0 | 3.0 | 0.00 | 0.49 | 0.00 | 94 | 1013.6 |
| 20260906052836 | 65 | 86 | 0.0 | 2.0 | 0.00 | 0.49 | 0.00 | 94 | 1013.5 |
| 20260906052337 | 65 | 91 | 1.0 | 2.0 | 0.00 | 0.49 | 0.00 | 93 | 1013.5 |
| 20260906051336 | 65 | 23 | 0.0 | 1.0 | 0.00 | 0.49 | 0.00 | 94 | 1013.4 |
| 20260906050836 | 65 | 74 | 0.0 | 1.0 | 0.00 | 0.49 | 0.00 | 94 | 1013.3 |
| 20260906050336 | 66 | 43 | 0.0 | 0.0 | 0.00 | 0.49 | 0.00 | 93 | 1013.2 |
| 20260906045835 | 66 | 43 | 0.0 | 1.0 | 0.00 | 0.49 | 0.00 | 93 | 1013.0 |
| 20260906045335 | 66 | 43 | 0.0 | 1.0 | 0.00 | 0.49 | 0.00 | 93 | 1013.0 |
| 20260906044835 | 66 | 43 | 0.0 | 1.0 | 0.00 | 0.49 | 0.00 | 93 | 1013.0 |
| 20260906044335 | 66 | 32 | 0.0 | 0.0 | 0.00 | 0.49 | 0.00 | 93 | 1012.9 |
| 20260906043834 | 66 | 32 | 0.0 | 1.0 | 0.00 | 0.49 | 0.00 | 93 | 1012.8 |
| 20260906043334 | 67 | 32 | 0.0 | 1.0 | 0.00 | 0.49 | 0.00 | 93 | 1012.8 |
| 20260906042835 | 67 | 36 | 0.0 | 1.0 | 0.00 | 0.49 | 0.00 | 93 | 1012.8 |
| 20260906042334 | 67 | 76 | 0.0 | 1.0 | 0.00 | 0.49 | 0.00 | 93 | 1012.7 |
| 20260906041834 | 67 | 102 | 0.0 | 1.0 | 0.00 | 0.49 | 0.00 | 93 | 1012.7 |
| 20260906041334 | 67 | 124 | 0.0 | 3.0 | 0.00 | 0.49 | 0.00 | 93 | 1012.6 |
| 20260906040834 | 68 | 49 | 0.0 | 3.0 | 0.00 | 0.49 | 0.00 | 93 | 1012.6 |
| 20260906040334 | 68 | 355 | 0.0 | 4.0 | 0.00 | 0.49 | 0.00 | 93 | 1012.8 |
| 20260906035833 | 68 | 93 | 0.0 | 4.0 | 0.00 | 0.49 | 0.49 | 93 | 1012.8 |
| 20260906035333 | 68 | 81 | 1.0 | 3.0 | 0.00 | 0.49 | 0.49 | 93 | 1012.7 |
| 20260906034833 | 68 | 40 | 0.0 | 3.0 | 0.00 | 0.49 | 0.49 | 93 | 1012.8 |
| 20260906033833 | 69 | 85 | 1.0 | 5.0 | 0.00 | 0.49 | 0.49 | 93 | 1012.9 |
| 20260906033333 | 69 | 64 | 0.0 | 5.0 | 0.00 | 0.49 | 0.49 | 93 | 1013.0 |
| 20260906032833 | 69 | 75 | 1.0 | 4.0 | 0.00 | 0.49 | 0.49 | 93 | 1013.0 |
| 20260906032332 | 69 | 85 | 0.0 | 5.0 | 0.00 | 0.49 | 0.49 | 93 | 1012.9 |
| 20260906031332 | 70 | 80 | 3.0 | 5.0 | 0.00 | 0.49 | 0.49 | 93 | 1012.9 |
| 20260906030332 | 70 | 74 | 0.0 | 5.0 | 0.00 | 0.49 | 0.49 | 93 | 1013.0 |
| 20260906025832 | 70 | 86 | 0.0 | 4.0 | 0.00 | 0.49 | 0.49 | 93 | 1013.0 |
| 20260906025331 | 70 | 61 | 1.0 | 4.0 | 0.00 | 0.49 | 0.49 | 93 | 1013.0 |
| 20260906024831 | 70 | 56 | 0.0 | 5.0 | 0.00 | 0.49 | 0.49 | 93 | 1013.0 |
| 20260906024331 | 71 | 81 | 1.0 | 5.0 | 0.00 | 0.49 | 0.49 | 94 | 1012.9 |
| 20260906023831 | 71 | 108 | 0.0 | 5.0 | 0.00 | 0.49 | 0.49 | 93 | 1012.8 |
| 20260906023331 | 71 | 121 | 1.0 | 4.0 | 0.00 | 0.49 | 0.49 | 94 | 1012.8 |
| 20260906022330 | 72 | 60 | 0.0 | 4.0 | 0.00 | 0.49 | 0.49 | 94 | 1012.9 |
| 20260906021830 | 72 | 61 | 1.0 | 4.0 | 0.00 | 0.49 | 0.49 | 94 | 1012.9 |
| 20260906021330 | 72 | 74 | 0.0 | 4.0 | 0.00 | 0.49 | 0.49 | 94 | 1013.0 |
| 20260906020830 | 73 | 72 | 2.0 | 4.0 | 0.00 | 0.49 | 0.49 | 94 | 1013.0 |
| 20260906020330 | 73 | 75 | 0.0 | 6.0 | 0.00 | 0.49 | 0.49 | 94 | 1013.0 |
| 20260906015830 | 73 | 81 | 1.0 | 6.0 | 0.00 | 0.49 | 0.49 | 94 | 1012.6 |
| 20260906015329 | 73 | 22 | 3.0 | 6.0 | 0.00 | 0.49 | 0.49 | 94 | 1012.4 |
| 20260906014829 | 74 | 17 | 3.0 | 5.0 | 0.00 | 0.49 | 0.49 | 94 | 1012.5 |
| 20260906013329 | 73 | 65 | 0.0 | 2.0 | 0.00 | 0.49 | 0.49 | 94 | 1012.4 |
| 20260906012829 | 73 | 77 | 0.0 | 2.0 | 0.00 | 0.49 | 0.49 | 94 | 1012.4 |
| 20260906012329 | 73 | 53 | 2.0 | 2.0 | 0.00 | 0.49 | 0.49 | 94 | 1012.2 |
| 20260906011828 | 73 | 340 | 0.0 | 0.0 | 0.00 | 0.49 | 0.49 | 94 | 1012.2 |
| 20260906010828 | 73 | 340 | 0.0 | 1.0 | 0.00 | 0.49 | 0.49 | 94 | 1012.0 |
| 20260906005828 | 74 | 13 | 0.0 | 0.0 | 0.00 | 0.49 | 0.49 | 94 | 1011.8 |
| 20260906005327 | 74 | 13 | 0.0 | 0.0 | 0.00 | 0.49 | 0.49 | 94 | 1011.8 |
| 20260906004827 | 74 | 13 | 0.0 | 1.0 | 0.00 | 0.49 | 0.49 | 94 | 1011.8 |
| 20260906004327 | 74 | 13 | 0.0 | 1.0 | 0.00 | 0.49 | 0.49 | 94 | 1011.7 |
| 20260906003827 | 74 | 71 | 0.0 | 0.0 | 0.00 | 0.49 | 0.49 | 94 | 1011.6 |
| 20260906003327 | 74 | 71 | 0.0 | 0.0 | 0.00 | 0.49 | 0.49 | 94 | 1011.6 |
| 20260906002827 | 74 | 71 | 0.0 | 0.0 | 0.00 | 0.49 | 0.49 | 94 | 1011.7 |
| 20260906002327 | 74 | 71 | 0.0 | 0.0 | 0.00 | 0.49 | 0.49 | 94 | 1011.6 |
| 20260906001326 | 74 | 71 | 0.0 | 0.0 | 0.00 | 0.49 | 0.49 | 93 | 1011.6 |
| 20260906000826 | 74 | 71 | 0.0 | 1.0 | 0.00 | 0.49 | 0.49 | 93 | 1011.4 |
| 20260906000326 | 75 | 71 | 0.0 | 1.0 | 0.00 | 0.49 | 0.49 | 93 | 1011.3 |
| 20260905235826 | 75 | 57 | 0.0 | 1.0 | 0.00 | 0.49 | 0.49 | 93 | 1011.4 |
| 20260905234326 | 76 | 97 | 0.0 | 2.0 | 0.00 | 0.49 | 0.49 | 93 | 1011.5 |
| 20260905233826 | 76 | 9 | 0.0 | 2.0 | 0.00 | 0.49 | 0.49 | 93 | 1011.5 |
| 20260905233325 | 76 | 78 | 0.0 | 3.0 | 0.00 | 0.49 | 0.49 | 92 | 1011.5 |
| 20260905232825 | 76 | 82 | 0.0 | 3.0 | 0.00 | 0.49 | 0.49 | 92 | 1011.3 |
| 20260905231825 | 77 | 78 | 0.0 | 7.0 | 0.00 | 0.49 | 0.49 | 92 | 1011.3 |
| 20260905231324 | 77 | 108 | 0.0 | 4.0 | 0.00 | 0.49 | 0.49 | 92 | 1011.3 |
| 20260905230824 | 77 | 53 | 0.0 | 3.0 | 0.00 | 0.49 | 0.49 | 92 | 1011.4 |
| 20260905230324 | 77 | 97 | 1.0 | 2.0 | 0.00 | 0.49 | 0.49 | 92 | 1011.4 |
| 20260905225824 | 77 | 14 | 0.0 | 2.0 | 0.00 | 0.49 | 0.49 | 92 | 1011.3 |
| 20260905225324 | 77 | 355 | 0.0 | 4.0 | 0.00 | 0.49 | 0.49 | 92 | 1011.3 |
| 20260905224824 | 78 | 91 | 0.0 | 4.0 | 0.00 | 0.49 | 0.49 | 92 | 1011.2 |
| 20260905224324 | 78 | 59 | 0.0 | 4.0 | 0.00 | 0.49 | 0.49 | 92 | 1011.2 |
| 20260905223824 | 79 | 108 | 0.0 | 2.0 | 0.00 | 0.49 | 0.49 | 92 | 1011.0 |
| 20260905223323 | 79 | 108 | 0.0 | 3.0 | 0.07 | 0.49 | 0.49 | 93 | 1011.0 |
| 20260905222823 | 79 | 95 | 0.0 | 3.0 | 0.07 | 0.49 | 0.49 | 93 | 1011.0 |
| 20260905221323 | 78 | 99 | 0.0 | 1.0 | 0.07 | 0.49 | 0.49 | 93 | 1010.9 |
| 20260905220822 | 78 | 99 | 0.0 | 2.0 | 0.07 | 0.49 | 0.49 | 92 | 1011.0 |
| 20260905220322 | 78 | 99 | 0.0 | 3.0 | 0.07 | 0.49 | 0.49 | 92 | 1010.9 |
| 20260905215822 | 78 | 99 | 0.0 | 3.0 | 0.07 | 0.49 | 0.49 | 91 | 1010.8 |
| 20260905215322 | 79 | 123 | 1.0 | 2.0 | 0.07 | 0.49 | 0.49 | 91 | 1010.6 |
| 20260905214822 | 79 | 71 | 1.0 | 3.0 | 0.07 | 0.49 | 0.49 | 90 | 1010.5 |
| 20260905214322 | 79 | 71 | 2.0 | 4.0 | 0.07 | 0.49 | 0.49 | 89 | 1010.5 |
| 20260905213821 | 80 | 293 | 2.0 | 9.0 | 0.07 | 0.49 | 0.49 | 87 | 1010.7 |
| 20260905212821 | 82 | 88 | 2.0 | 3.0 | 0.00 | 0.42 | 0.42 | 83 | 1010.6 |
| 20260905212321 | 83 | 333 | 0.0 | 3.0 | 0.00 | 0.42 | 0.42 | 82 | 1010.7 |
| 20260905211851 | 84 | 86 | 1.0 | 3.0 | 0.00 | 0.42 | 0.42 | 82 | 1010.7 |
| 20260905211351 | 84 | 5 | 0.0 | 4.0 | 0.00 | 0.42 | 0.42 | 80 | 1010.8 |
| 20260905210851 | 84 | 355 | 1.0 | 4.0 | 0.00 | 0.42 | 0.42 | 78 | 1010.9 |
| 20260905210350 | 84 | 86 | 0.0 | 4.0 | 0.00 | 0.42 | 0.42 | 81 | 1011.1 |
| 20260905205850 | 83 | 103 | 1.0 | 3.0 | 0.00 | 0.42 | 0.42 | 82 | 1011.0 |
| 20260905205350 | 83 | 78 | 0.0 | 2.0 | 0.00 | 0.42 | 0.42 | 83 | 1011.1 |
| 20260905204850 | 83 | 78 | 0.0 | 3.0 | 0.00 | 0.42 | 0.42 | 84 | 1011.1 |
| 20260905204350 | 83 | 78 | 1.0 | 3.0 | 0.00 | 0.42 | 0.42 | 82 | 1011.3 |
| 20260905203850 | 83 | 9 | 0.0 | 4.0 | 0.00 | 0.42 | 0.42 | 82 | 1011.2 |
| 20260905203350 | 84 | 349 | 2.0 | 4.0 | 0.00 | 0.42 | 0.42 | 79 | 1011.2 |
| 20260905202850 | 84 | 324 | 2.0 | 4.0 | 0.00 | 0.42 | 0.42 | 78 | 1011.2 |
| 20260905201849 | 83 | 327 | 1.0 | 4.0 | 0.00 | 0.42 | 0.42 | 77 | 1011.3 |
| 20260905201349 | 84 | 327 | 1.0 | 5.0 | 0.00 | 0.42 | 0.42 | 79 | 1011.3 |
| 20260905200849 | 84 | 71 | 0.0 | 5.0 | 0.00 | 0.42 | 0.42 | 79 | 1011.4 |
| 20260905195848 | 84 | 22 | 1.0 | 5.0 | 0.00 | 0.43 | 0.42 | 79 | 1011.6 |
| 20260905195349 | 84 | 84 | 2.0 | 5.0 | 0.00 | 0.44 | 0.42 | 77 | 1011.6 |
| 20260905194348 | 83 | 24 | 1.0 | 4.0 | 0.00 | 0.54 | 0.42 | 76 | 1012.1 |
| 20260905193848 | 83 | 347 | 2.0 | 4.0 | 0.00 | 0.58 | 0.42 | 77 | 1012.1 |
| 20260905193348 | 83 | 5 | 1.0 | 6.0 | 0.00 | 0.64 | 0.42 | 76 | 1012.1 |
| 20260905192847 | 83 | 337 | 1.0 | 6.0 | 0.00 | 0.70 | 0.42 | 77 | 1012.1 |
| 20260905192347 | 83 | 5 | 1.0 | 7.0 | 0.00 | 0.79 | 0.42 | 77 | 1012.1 |
| 20260905191847 | 84 | 329 | 2.0 | 7.0 | 0.00 | 0.82 | 0.42 | 76 | 1012.2 |
| 20260905191347 | 83 | 339 | 0.0 | 4.0 | 0.00 | 0.82 | 0.42 | 76 | 1012.2 |
| 20260905190847 | 83 | 284 | 1.0 | 5.0 | 0.00 | 0.82 | 0.42 | 76 | 1012.3 |
| 20260905190347 | 83 | 309 | 2.0 | 6.0 | 0.00 | 0.82 | 0.42 | 77 | 1012.6 |
| 20260905185846 | 83 | 355 | 3.0 | 6.0 | 0.00 | 0.82 | 0.42 | 75 | 1012.4 |
| 20260905185347 | 84 | 336 | 1.0 | 5.0 | 0.00 | 0.82 | 0.42 | 75 | 1012.5 |
| 20260905184346 | 84 | 146 | 2.0 | 6.0 | 0.00 | 0.82 | 0.42 | 76 | 1012.6 |
| 20260905183846 | 84 | 360 | 1.0 | 4.0 | 0.00 | 0.82 | 0.42 | 78 | 1012.6 |
| 20260905182846 | 84 | 306 | 2.0 | 9.0 | 0.00 | 0.82 | 0.42 | 77 | 1012.6 |
| 20260905182345 | 83 | 39 | 1.0 | 9.0 | 0.00 | 0.82 | 0.42 | 76 | 1012.6 |
| 20260905181846 | 83 | 164 | 1.0 | 5.0 | 0.00 | 0.82 | 0.42 | 77 | 1012.6 |
| 20260905181346 | 83 | 232 | 2.0 | 5.0 | 0.00 | 0.82 | 0.42 | 78 | 1012.7 |
| 20260905180845 | 83 | 271 | 4.0 | 5.0 | 0.00 | 0.82 | 0.42 | 77 | 1012.8 |
| 20260905173844 | 80 | 16 | 5.0 | 6.0 | 0.00 | 0.82 | 0.42 | 83 | 1012.6 |
| 20260905173344 | 80 | 189 | 0.0 | 5.0 | 0.00 | 0.82 | 0.42 | 82 | 1012.7 |
| 20260905172845 | 79 | 355 | 1.0 | 5.0 | 0.00 | 0.82 | 0.42 | 84 | 1012.7 |
| 20260905172344 | 79 | 318 | 3.0 | 3.0 | 0.00 | 0.82 | 0.42 | 86 | 1012.6 |
| 20260905171844 | 77 | 345 | 0.0 | 7.0 | 0.00 | 0.82 | 0.42 | 87 | 1012.7 |
| 20260905171343 | 77 | 355 | 0.0 | 7.0 | 0.00 | 0.82 | 0.42 | 87 | 1012.7 |
| 20260905170843 | 76 | 240 | 0.0 | 6.0 | 0.00 | 0.82 | 0.42 | 87 | 1012.9 |
| 20260905170343 | 76 | 24 | 0.0 | 6.0 | 0.00 | 0.82 | 0.42 | 87 | 1012.9 |
| 20260905165843 | 76 | 321 | 1.0 | 3.0 | 0.00 | 0.82 | 0.42 | 88 | 1013.0 |
| 20260905165343 | 75 | 317 | 0.0 | 3.0 | 0.00 | 0.82 | 0.42 | 89 | 1012.7 |
| 20260905164843 | 75 | 317 | 0.0 | 3.0 | 0.00 | 0.82 | 0.42 | 90 | 1012.9 |
| 20260905164343 | 75 | 19 | 0.0 | 2.0 | 0.00 | 0.82 | 0.42 | 90 | 1013.1 |
| 20260905163842 | 75 | 19 | 0.0 | 2.0 | 0.00 | 0.82 | 0.42 | 90 | 1013.0 |
| 20260905162842 | 74 | 19 | 0.0 | 0.0 | 0.00 | 0.82 | 0.42 | 91 | 1012.9 |
| 20260905162342 | 74 | 19 | 0.0 | 0.0 | 0.00 | 0.82 | 0.42 | 91 | 1013.0 |